Location: Keppel Henge
(44.7900°N, 80.9447°W)
Time: 11:45:52
(UTC-04:00)

OTV 5 (USA 277) - Pass Details

Date: 10 October 2017
Orbit: 404 x 417 km, 43.0° (Epoch: 07 September)

Event Time Altitude Azimuth Distance (km) Brightness Sun altitude
Rises 19:42:35 0° 218° (SW) 2,345 ? -10.6°
Reaches altitude 10° 19:45:04 10° 200° (SSW) 1,485 ? -11.0°
Maximum altitude 19:47:33 19° 152° (SSE) 1,048 ? -11.5°
Enters shadow 19:48:51 16° 122° (ESE) 1,187 ? -11.7°
